| time (UTC) | temp F | wind direction | speed knots | gust knots | rain 1hr in | rain 24hr in | rain mn in | humidity % | barometer mb |
| 20260506143744 | 49 | 6 | 5.2 | 9.6 | 0.00 | 0.45 | 0.45 | 94 | 1008.6 |
| 20260506143646 | 49 | 308 | 5.2 | 9.6 | 0.00 | 0.45 | 0.45 | 94 | 1008.6 |
| 20260506142243 | 48 | 344 | 3.5 | 11.3 | 0.00 | 0.45 | 0.45 | 94 | 1008.4 |
| 20260506142143 | 48 | 24 | 6.1 | 6.1 | 0.00 | 0.45 | 0.45 | 94 | 1008.4 |
| 20260506140744 | 48 | 35 | 0.0 | 12.2 | 0.01 | 0.45 | 0.45 | 95 | 1008.1 |
| 20260506135243 | 47 | 340 | 2.6 | 6.1 | 0.02 | 0.45 | 0.44 | 95 | 1008.3 |
| 20260506135143 | 47 | 4 | 6.1 | 7.0 | 0.02 | 0.45 | 0.45 | 95 | 1008.3 |
| 20260506134005 | 47 | 8 | 4.3 | 7.0 | 0.02 | 0.45 | 0.45 | 95 | 1008.0 |
| 20260506133742 | 47 | 4 | 1.7 | 7.0 | 0.02 | 0.45 | 0.45 | 95 | 1008.0 |
| 20260506132503 | 47 | 348 | 2.6 | 7.8 | 0.03 | 0.45 | 0.45 | 94 | 1007.8 |
| 20260506132243 | 47 | 348 | 2.6 | 7.8 | 0.03 | 0.45 | 0.45 | 94 | 1007.8 |
| 20260506131007 | 47 | 44 | 0.0 | 9.6 | 0.02 | 0.44 | 0.44 | 95 | 1007.8 |
| 20260506130744 | 47 | 39 | 0.0 | 9.6 | 0.02 | 0.44 | 0.44 | 95 | 1007.8 |
| 20260506125243 | 47 | 6 | 1.7 | 9.6 | 0.02 | 0.43 | 0.43 | 94 | 1007.8 |
| 20260506125144 | 47 | 6 | 1.7 | 9.6 | 0.02 | 0.43 | 0.43 | 94 | 1007.8 |
| 20260506124007 | 47 | 19 | 4.3 | 7.0 | 0.02 | 0.43 | 0.43 | 94 | 1007.1 |
| 20260506123744 | 47 | 19 | 4.3 | 7.0 | 0.02 | 0.43 | 0.43 | 94 | 1007.1 |
| 20260506122242 | 48 | 27 | 6.1 | 10.4 | 0.02 | 0.43 | 0.43 | 94 | 1006.1 |
| 20260506120743 | 48 | 6 | 4.3 | 8.7 | 0.01 | 0.42 | 0.42 | 94 | 1006.7 |
| 20260506115242 | 49 | 346 | 0.0 | 6.1 | 0.00 | 0.41 | 0.40 | 94 | 1006.8 |
| 20260506113742 | 49 | 19 | 0.0 | 8.7 | 0.00 | 0.41 | 0.41 | 94 | 1006.6 |
| 20260506112243 | 49 | 11 | 5.2 | 7.8 | 0.02 | 0.41 | 0.41 | 94 | 1006.0 |
| 20260506105243 | 50 | 348 | 6.1 | 11.3 | 0.06 | 0.41 | 0.41 | 94 | 1005.4 |
| 20260506104006 | 52 | 17 | 0.0 | 11.3 | 0.08 | 0.41 | 0.41 | 94 | 1005.5 |
| 20260506103743 | 52 | 17 | 0.0 | 11.3 | 0.08 | 0.41 | 0.41 | 94 | 1005.5 |
| 20260506102243 | 55 | 354 | 5.2 | 4.3 | 0.07 | 0.39 | 0.39 | 95 | 1004.8 |
| 20260506102143 | 56 | 329 | 7.8 | 5.2 | 0.06 | 0.37 | 0.37 | 95 | 1004.8 |
| 20260506100742 | 56 | 206 | 0.0 | 3.5 | 0.06 | 0.36 | 0.36 | 95 | 1005.0 |
| 20260506095243 | 56 | 214 | 0.0 | 4.3 | 0.09 | 0.35 | 0.35 | 95 | 1004.8 |
| 20260506095204 | 56 | 214 | 0.0 | 4.3 | 0.09 | 0.35 | 0.35 | 95 | 1004.8 |
| 20260506093742 | 56 | 202 | 0.9 | 7.0 | 0.09 | 0.33 | 0.33 | 95 | 1004.8 |
| 20260506093709 | 56 | 231 | 0.0 | 7.0 | 0.09 | 0.33 | 0.33 | 95 | 1004.8 |
| 20260506092244 | 56 | 214 | 0.0 | 7.0 | 0.10 | 0.32 | 0.32 | 95 | 1004.8 |
| 20260506090742 | 56 | 205 | 0.0 | 5.2 | 0.13 | 0.30 | 0.30 | 95 | 1004.9 |
| 20260506085144 | 56 | 237 | 0.0 | 5.2 | 0.14 | 0.26 | 0.26 | 95 | 1004.9 |
| 20260506084528 | 56 | 207 | 0.9 | 5.2 | 0.14 | 0.26 | 0.26 | 95 | 1004.9 |
| 20260506083645 | 56 | 204 | 2.6 | 5.2 | 0.13 | 0.24 | 0.24 | 95 | 1005.4 |
| 20260506083028 | 56 | 219 | 0.0 | 3.5 | 0.11 | 0.22 | 0.22 | 95 | 1005.4 |
| 20260506082148 | 56 | 200 | 1.7 | 0.0 | 0.08 | 0.19 | 0.19 | 95 | 1005.4 |
| 20260506081528 | 56 | 227 | 0.9 | 0.0 | 0.08 | 0.19 | 0.19 | 94 | 1005.4 |
| 20260506073029 | 56 | 210 | 0.0 | 0.0 | 0.00 | 0.11 | 0.11 | 94 | 1005.3 |
| 20260506072506 | 56 | 210 | 0.0 | 0.0 | 0.01 | 0.11 | 0.11 | 94 | 1004.9 |
| 20260506072144 | 56 | 210 | 0.0 | 0.0 | 0.01 | 0.11 | 0.11 | 94 | 1004.9 |
| 20260506071528 | 56 | 210 | 0.0 | 0.0 | 0.01 | 0.11 | 0.11 | 94 | 1004.9 |
| 20260506071006 | 56 | 210 | 0.0 | 0.0 | 0.01 | 0.11 | 0.11 | 93 | 1005.1 |
| 20260506062144 | 56 | 216 | 0.0 | 0.0 | 0.04 | 0.10 | 0.10 | 93 | 1005.9 |
| 20260506061529 | 56 | 216 | 0.0 | 0.0 | 0.04 | 0.11 | 0.10 | 93 | 1005.9 |
| 20260506060722 | 56 | 241 | 0.0 | 3.5 | 0.04 | 0.11 | 0.10 | 93 | 1006.3 |
| 20260506043742 | 58 | 196 | 0.0 | 0.0 | 0.04 | 0.06 | 0.04 | 91 | 1007.5 |
| 20260506042244 | 59 | 212 | 0.0 | 0.0 | 0.03 | 0.05 | 0.03 | 91 | 1007.5 |
| 20260506042145 | 59 | 212 | 0.0 | 2.6 | 0.02 | 0.04 | 0.02 | 91 | 1007.5 |
| 20260506040742 | 59 | 212 | 0.0 | 0.9 | 0.01 | 0.03 | 0.01 | 90 | 1007.7 |
| 20260506040651 | 59 | 212 | 0.0 | 0.9 | 0.01 | 0.03 | 0.01 | 90 | 1007.7 |
| 20260506035244 | 59 | 239 | 0.0 | 1.7 | 0.01 | 0.03 | 0.03 | 89 | 1007.6 |
| 20260506035146 | 59 | 260 | 0.0 | 0.9 | 0.00 | 0.02 | 0.02 | 89 | 1007.6 |
| 20260506033742 | 60 | 275 | 0.0 | 3.5 | 0.00 | 0.02 | 0.02 | 86 | 1007.4 |
| 20260506032242 | 61 | 285 | 0.0 | 3.5 | 0.00 | 0.02 | 0.02 | 84 | 1007.3 |
| 20260506030742 | 61 | 280 | 0.0 | 2.6 | 0.00 | 0.02 | 0.02 | 82 | 1007.1 |
| 20260506025243 | 62 | 280 | 0.0 | 0.9 | 0.00 | 0.02 | 0.02 | 80 | 1007.4 |
| 20260506025144 | 62 | 280 | 0.0 | 0.9 | 0.00 | 0.02 | 0.02 | 80 | 1007.4 |
| 20260506023743 | 62 | 265 | 0.0 | 2.6 | 0.00 | 0.02 | 0.02 | 78 | 1007.0 |
| 20260506022242 | 63 | 280 | 0.9 | 7.0 | 0.00 | 0.02 | 0.02 | 75 | 1007.1 |
| 20260506022143 | 63 | 280 | 0.9 | 7.0 | 0.00 | 0.02 | 0.02 | 75 | 1007.1 |
| 20260506020743 | 64 | 200 | 0.0 | 7.8 | 0.00 | 0.02 | 0.02 | 74 | 1007.0 |
| 20260506015242 | 66 | 285 | 0.0 | 13.0 | 0.00 | 0.02 | 0.02 | 64 | 1006.9 |
| 20260506013743 | 67 | 228 | 0.0 | 5.2 | 0.00 | 0.02 | 0.02 | 59 | 1006.7 |
| 20260506012242 | 67 | 250 | 0.9 | 3.5 | 0.00 | 0.02 | 0.02 | 59 | 1006.6 |
| 20260506010743 | 67 | 234 | 0.9 | 5.2 | 0.00 | 0.02 | 0.02 | 57 | 1006.5 |
| 20260506005242 | 67 | 196 | 0.9 | 7.8 | 0.00 | 0.02 | 0.02 | 57 | 1006.5 |
| 20260506003743 | 68 | 238 | 0.9 | 8.7 | 0.00 | 0.02 | 0.02 | 57 | 1006.8 |
| 20260506002242 | 68 | 222 | 0.9 | 12.2 | 0.00 | 0.02 | 0.02 | 56 | 1006.7 |
| 20260506000742 | 68 | 223 | 1.7 | 7.8 | 0.00 | 0.02 | 0.02 | 57 | 1006.8 |
| 20260505235243 | 69 | 229 | 1.7 | 6.1 | 0.00 | 0.02 | 0.02 | 58 | 1006.8 |
| 20260505233742 | 69 | 231 | 0.9 | 7.0 | 0.00 | 0.02 | 0.02 | 59 | 1006.7 |
| 20260505232243 | 69 | 252 | 0.0 | 8.7 | 0.00 | 0.02 | 0.02 | 58 | 1006.5 |
| 20260505230742 | 70 | 235 | 0.9 | 9.6 | 0.00 | 0.02 | 0.02 | 57 | 1006.5 |
| 20260505225243 | 69 | 215 | 4.3 | 7.0 | 0.00 | 0.02 | 0.02 | 58 | 1006.7 |
| 20260505223743 | 69 | 229 | 0.9 | 5.2 | 0.00 | 0.02 | 0.02 | 59 | 1006.8 |
| 20260505222243 | 70 | 207 | 4.3 | 9.6 | 0.00 | 0.02 | 0.02 | 59 | 1006.9 |
| 20260505220743 | 70 | 199 | 1.7 | 10.4 | 0.00 | 0.02 | 0.02 | 57 | 1006.9 |
| 20260505215243 | 70 | 237 | 2.6 | 14.8 | 0.00 | 0.02 | 0.02 | 57 | 1006.9 |
| 20260505213743 | 70 | 241 | 4.3 | 11.3 | 0.00 | 0.02 | 0.02 | 57 | 1007.1 |
| 20260505212243 | 70 | 231 | 3.5 | 15.6 | 0.00 | 0.02 | 0.02 | 58 | 1007.0 |
| 20260505210743 | 71 | 234 | 0.0 | 7.8 | 0.00 | 0.02 | 0.02 | 56 | 1006.9 |
| 20260505205243 | 70 | 236 | 2.6 | 13.9 | 0.00 | 0.02 | 0.02 | 58 | 1007.2 |
| 20260505203743 | 70 | 226 | 5.2 | 17.4 | 0.00 | 0.02 | 0.02 | 57 | 1007.2 |
| 20260505202242 | 70 | 212 | 5.2 | 17.4 | 0.00 | 0.02 | 0.02 | 56 | 1007.1 |
| 20260505200743 | 71 | 229 | 6.1 | 13.0 | 0.00 | 0.02 | 0.02 | 58 | 1007.3 |
| 20260505195243 | 70 | 240 | 7.8 | 11.3 | 0.00 | 0.02 | 0.02 | 58 | 1007.4 |
| 20260505195147 | 70 | 240 | 7.8 | 11.3 | 0.00 | 0.02 | 0.02 | 58 | 1007.4 |
| 20260505193743 | 71 | 241 | 9.6 | 13.0 | 0.00 | 0.02 | 0.02 | 58 | 1007.5 |
| 20260505192243 | 71 | 256 | 10.4 | 15.6 | 0.00 | 0.02 | 0.02 | 57 | 1007.5 |
| 20260505190742 | 71 | 247 | 7.0 | 17.4 | 0.00 | 0.02 | 0.02 | 54 | 1007.6 |
| 20260505185243 | 72 | 265 | 3.5 | 18.2 | 0.00 | 0.02 | 0.02 | 54 | 1007.6 |
| 20260505183742 | 72 | 247 | 5.2 | 19.1 | 0.00 | 0.02 | 0.02 | 54 | 1007.9 |
| 20260505182243 | 71 | 204 | 4.3 | 20.0 | 0.00 | 0.02 | 0.02 | 55 | 1007.9 |
| 20260505182144 | 71 | 207 | 4.3 | 17.4 | 0.00 | 0.02 | 0.02 | 54 | 1007.9 |
| 20260505180743 | 71 | 249 | 9.6 | 16.5 | 0.00 | 0.02 | 0.02 | 54 | 1007.8 |
| 20260505175244 | 70 | 238 | 5.2 | 20.0 | 0.00 | 0.02 | 0.02 | 58 | 1007.8 |
| 20260505175145 | 70 | 238 | 5.2 | 20.0 | 0.00 | 0.02 | 0.02 | 58 | 1007.8 |
| 20260505173742 | 71 | 206 | 9.6 | 15.6 | 0.00 | 0.02 | 0.02 | 55 | 1008.0 |
| 20260505172242 | 70 | 215 | 3.5 | 12.2 | 0.00 | 0.02 | 0.02 | 59 | 1008.1 |
| 20260505172146 | 70 | 232 | 2.6 | 12.2 | 0.00 | 0.02 | 0.02 | 57 | 1008.1 |
| 20260505170743 | 68 | 260 | 5.2 | 13.0 | 0.00 | 0.02 | 0.02 | 60 | 1008.1 |
| 20260505165242 | 68 | 270 | 4.3 | 15.6 | 0.00 | 0.02 | 0.02 | 61 | 1007.9 |
| 20260505165141 | 68 | 270 | 4.3 | 15.6 | 0.00 | 0.02 | 0.02 | 61 | 1007.9 |
| 20260505163743 | 67 | 227 | 4.3 | 20.0 | 0.00 | 0.02 | 0.02 | 58 | 1008.1 |
| 20260505162243 | 68 | 232 | 5.2 | 16.5 | 0.00 | 0.02 | 0.02 | 58 | 1007.6 |
| 20260505160744 | 70 | 190 | 4.3 | 14.8 | 0.00 | 0.02 | 0.02 | 56 | 1007.7 |
| 20260505152242 | 69 | 233 | 7.8 | 15.6 | 0.00 | 0.02 | 0.02 | 59 | 1008.1 |
| 20260505150743 | 69 | 229 | 3.5 | 17.4 | 0.00 | 0.02 | 0.02 | 60 | 1007.6 |